SCP
-0 0 0 0 0 0 0 0 0 0 0 0 0 0 0 0 0 0 0 0 0 0 0 0 0 0 0 0 0 0 0 0 0 0 0 0 0 0 0 0 0 0 0 0 0 0 0
0 0 0 0 0 0 0 0 0 0 0 0 0 0 0 0 0 0 0 0 0 0 0 0 0 0 0 0 0 0 0 0 0 0 0 0 0 0 0 0 0 0 0 0 0 0 0
0 0 0 0 0 0 0 0 0 0 0 0 0 0 0 0 0 0 0 0 0 0 0 0 0 -0 0 0 0 0 0 0 0 0 0 0 0 0 0 0 0 0 0 0 0 0 0
0 0 0 0 0 0 0 0 0 0 0 0 0 0 0 0 0 0 0 0 0 0 0 0 0 0 0 -0 0 0 0 0 0 0 0 0 0 0 0 0 0 0 0 0 0 0 0
-0 -0 -0 -0 0 0 0 0 0 0 0 0 0 0 0 0 0 0 0 0 0 0 0 0 0 0 0 0 0 0 0 0 0 0 0 0 0 0 0 0 0 0 0 0 0 0 0
-0 -0 -0 -0 -0 -0 -0 0 0 0 0 0 0 0 0 0 0 0 0 0 -0 -0 -0 0 0 0 0 0 0 0 0 0 0 0 0 0 0 0 0 0 0 0 0 0 0 0 0
-0 -0 -0 -0 -0 0 0 0 0 0 0 0 0 0 0 0 0 0 0 -0 -0 -0 -0 0 0 0 0 0 0 0 0 0 0 0 0 0 0 0 0 0 0 0 0 0 0 0 0
-0 -0 -0 -0 0 0 0 0 0 0 0 0 0 0 0 0 0 0 -0 0 0 0 0 0 -0 -0 -0 0 0 0 0 0 0 0 0 0 0 -0 0 0 0 0 0 0 0 0 0
-0 -0 -0 -0 -0 0 0 0 0 0 0 0 0 0 0 0 0 -0 0 0 0 0 -0 0 0 0 0 0 0 0 0 0 0 0 0 0 0 0 0 0 0 0 0 0 0 0 0
-0 -0 -0 -0 -0 0 0 0 0 -0 0 0 0 0 0 0 -0 0 0 0 0 0 -0 -0 0 0 0 -0 0 -0 0 0 0 0 0 0 0 0 0 0 0 0 0 0 0 0 0
-0 -0 -0 -0 0 0 -0 -0 -0 -0 -0 -0 0 0 0 0 0 0 0 0 0 -0 -0 0 0 0 0 0 0 0 0 0 0 0 0 0 0 0 0 0 0 0 0 0 0 0 0
-0 -0 -0 0 0 0 -0 -0 -0 0 0 0 0 0 0 0 0 0 0 0 0 0 0 0 0 0 0 -0 0 0 0 0 0 0 0 0 0 0 0 0 0 0 0 0 0 0 0
-0 -0 0 0 0 0 0 0 0 0 0 0 0 0 0 0 0 0 0 0 0 0 0 0 0 0 0 0 0 0 0 0 0 0 0 0 0 0 0 0 0 0 0 0 0 0 0
0 0 0 0 0 0 0 0 0 0 0 0 0 0 0 0 0 0 0 0 0 0 0 0 0 0 0 0 0 -0 0 0 0 0 0 0 0 0 0 0 0 0 0 0 0 0 0
0 0 0 0 0 0 0 0 0 0 0 0 0 0 0 0 0 0 0 -0 -0 -0 0 0 -0 -0 0 0 0 0 -0 0 0 0 0 0 0 -0 0 0 0 0 0 0 0 0 0
0 0 0 0 0 0 0 0 0 0 0 0 0 0 0 0 0 0 0 -0 -0 -0 0 0 -0 0 0 0 0 0 -0 -0 0 0 0 0 0 0 0 0 0 0 0 0 0 0 0
0 0 0 0 0 0 0 0 0 0 0 0 0 0 0 0 0 0 -0 -0 0 0 0 -0 0 -0 0 0 0 0 0 -0 0 0 0 0 0 0 0 0 0 0 0 0 0 0 -0
0 0 0 0 0 0 0 0 0 0 0 0 0 0 0 0 0 0 0 0 0 0 0 0 -0 0 0 0 0 0 0 -0 -0 0 0 0 0 0 0 0 0 0 0 0 0 0 0
0 0 0 0 0 0 0 0 0 0 0 0 0 0 0 0 0 0 0 0 0 0 0 0 0 -0 -0 -0 0 -0 -0 -0 -0 -0 0 0 0 0 0 0 0 0 0 0 0 0 0
0 0 0 0 0 0 0 0 0 0 0 0 0 0 0 0 0 0 0 0 0 0 0 0 0 0 -0 -0 -0 -0 0 -0 -0 -0 0 0 0 0 0 0 0 0 0 0 0 0 0
0 0 0 0 0 0 0 0 0 0 0 0 0 0 0 0 0 0 0 0 0 0 0 0 0 -0 0 0 -0 0 -0 0 -0 -0 -0 0 0 0 0 0 0 0 0 0 0 0 0
0 0 0 0 0 0 0 0 0 0 0 0 0 0 0 0 0 0 0 0 0 -0 0 0 0 0 0 -0 -0 -0 -0 0 -0 0 0 0 0 0 0 0 0 0 0 0 0 0 0
0 0 0 0 0 0 0 0 0 0 0 0 0 0 0 0 0 0 0 0 0 0 0 0 -0 0 0 -0 -0 -0 -0 0 0 0 0 0 0 0 0 0 0 0 0 0 0 0 0
0 0 0 0 0 0 0 0 0 0 0 0 0 0 0 0 0 0 0 -0 -0 -0 -0 -0 -0 0 0 -0 -0 -0 -0 -0 0 0 -0 0 0 0 0 0 0 0 0 0 0 0 0
0 0 0 0 0 0 0 0 0 0 0 0 0 0 0 0 0 0 0 0 -0 0 0 0 0 0 0 -0 -0 -0 0 0 -0 -0 -0 0 0 0 0 0 0 0 0 0 0 0 0
0 0 0 0 0 0 0 0 0 0 0 0 0 0 0 0 0 0 0 0 0 0 0 0 0 -0 0 0 -0 -0 0 0 0 -0 -0 -0 0 0 0 0 0 0 0 0 0 0 0
0 0 0 0 0 0 0 0 0 0 0 0 0 0 0 0 0 0 0 0 0 0 0 -0 0 0 0 0 0 0 0 0 0 0 -0 0 0 0 0 0 0 0 0 0 0 0 0
0 0 0 0 0 0 0 0 0 0 0 0 0 0 0 0 0 0 0 0 0 0 0 0 -0 0 0 0 0 0 0 0 0 0 0 0 0 0 0 0 0 0 0 0 0 0 0
0 0 0 0 0 0 0 0 0 0 0 0 0 0 0 0 0 0 0 0 0 -0 0 0 -0 0 -0 0 0 0 0 0 0 0 0 0 0 0 0 0 0 0 0 0 0 0 0
Wind_Speed_500mb
27 28 28 29 29 30 29 29 27 28 30 32 33 34 35 35 35 36 37 39 42 41 36 33 35 34 27 22 42 25 23 23 13 22 54 67 61 62 55 55 64 63 54 58 63 67 52
33 33 34 35 34 36 33 32 32 32 34 35 35 32 35 37 38 39 38 37 40 41 41 40 37 35 21 39 27 48 57 41 29 14 27 58 43 60 56 68 61 62 69 67 65 63 55
33 35 33 34 34 37 34 33 33 34 34 35 35 35 37 40 41 41 43 41 41 40 39 43 42 26 34 57 39 34 34 56 44 26 27 30 56 23 44 43 59 62 52 50 50 61 54
34 32 33 35 37 38 38 38 37 36 34 35 34 36 38 40 41 41 42 45 45 42 37 34 35 19 28 32 40 45 42 60 44 48 36 29 32 47 45 35 31 42 51 48 48 45 55
35 36 37 37 38 39 39 40 42 43 41 40 38 37 38 39 39 42 45 43 39 33 30 25 15 21 30 22 20 30 28 43 36 36 36 32 32 43 35 38 35 48 49 61 51 46 39
34 35 38 39 41 44 45 46 48 48 46 44 44 44 43 44 45 48 47 39 29 18 8 3 10 14 26 19 9 11 16 17 27 32 35 43 35 28 38 41 58 45 52 53 53 41 31
38 39 41 42 44 47 49 48 49 49 47 47 47 45 44 44 45 48 43 28 13 13 12 28 23 35 46 42 27 31 14 8 21 42 46 58 39 55 82 69 53 51 58 51 47 36 44
41 42 44 46 46 47 47 47 47 48 47 48 48 48 48 49 49 49 21 19 10 13 28 42 61 63 66 57 36 45 26 21 27 43 51 39 59 94 62 55 58 57 59 58 49 44 48
44 46 47 49 50 51 50 47 47 48 49 49 49 49 48 49 48 20 25 14 7 19 18 40 32 34 28 25 38 55 43 50 38 40 57 68 85 52 64 60 61 63 62 55 60 43 44
47 46 48 51 54 53 50 46 47 50 52 53 52 52 48 47 21 21 18 8 11 16 12 10 7 8 7 10 13 34 28 56 42 48 51 67 71 56 64 67 68 65 55 52 50 44 48
44 46 48 51 54 56 53 47 46 50 54 55 54 53 52 38 28 14 12 8 12 7 12 9 11 1 4 13 18 16 18 41 56 45 34 63 55 71 61 83 57 66 40 45 44 43 49
45 47 49 51 55 58 56 50 50 54 55 56 57 57 47 17 13 14 16 12 4 11 18 2 5 8 14 11 9 17 29 27 39 55 47 58 30 47 81 43 57 42 34 38 38 34 41
44 46 50 53 56 57 57 56 55 56 58 59 62 45 19 11 11 13 5 8 11 15 13 3 14 22 25 18 12 20 22 21 26 43 51 44 59 36 41 57 48 50 42 20 25 28 38
44 47 50 53 55 56 58 58 59 58 61 61 57 18 22 13 14 6 2 9 14 4 9 27 24 36 36 16 10 11 17 26 31 48 38 41 42 63 40 63 49 63 51 25 35 30 32
47 49 52 54 55 56 57 59 61 58 60 62 38 9 21 22 13 7 5 9 16 18 13 20 30 33 31 12 12 13 3 8 15 30 43 38 51 56 44 48 65 52 54 51 26 24 15
47 51 53 55 55 56 57 58 62 61 59 60 23 2 24 20 6 4 6 9 9 12 22 25 29 20 28 16 20 10 3 8 21 34 27 12 21 40 62 48 55 51 49 43 31 39 32
48 51 53 55 56 56 56 56 57 63 55 54 17 5 20 18 6 6 7 14 21 23 25 15 26 28 27 27 26 23 5 19 6 25 24 26 18 30 46 51 53 42 42 42 34 27 32
50 51 53 55 57 56 54 55 56 59 53 40 16 5 14 11 5 0 10 19 24 22 23 18 17 18 21 25 23 16 12 7 16 12 13 13 13 22 54 45 49 56 43 54 25 42 24
51 51 52 54 57 55 52 55 52 49 48 35 19 9 10 13 6 7 14 20 15 25 23 13 20 14 20 22 12 9 10 21 14 1 4 7 19 17 23 46 43 55 47 52 33 31 42
53 53 53 55 56 51 52 55 48 42 36 24 14 7 7 6 2 7 16 12 16 16 17 21 20 22 23 20 17 13 14 4 9 18 14 10 9 29 17 37 22 47 49 49 47 24 25
53 54 56 56 52 48 56 57 48 39 26 16 12 5 8 8 10 20 18 11 23 18 14 26 8 15 22 14 30 22 10 16 4 11 15 7 14 38 38 17 14 26 49 50 49 44 33
53 54 56 53 48 53 59 61 45 32 28 9 11 10 12 32 17 22 3 15 21 23 15 18 21 31 28 25 28 33 32 23 8 12 10 8 3 23 40 30 22 15 21 45 48 44 39
54 55 55 51 46 57 62 62 49 25 22 7 9 10 11 17 12 14 12 15 24 33 25 18 28 30 30 21 29 43 44 40 23 13 7 9 8 10 38 39 19 23 29 31 38 44 39
55 54 55 53 43 53 63 64 50 23 19 18 20 16 7 10 16 18 24 33 29 31 33 47 41 19 16 48 54 47 48 46 39 31 23 17 14 8 16 32 25 14 16 26 26 35 38
55 55 55 56 47 48 61 66 55 20 17 16 20 16 8 11 20 27 25 26 35 29 28 31 29 24 34 26 11 14 11 18 29 36 30 26 19 6 10 24 19 15 19 8 24 18 10
52 55 56 58 55 44 55 63 60 24 14 17 19 20 17 12 7 16 33 30 21 20 21 14 25 29 14 6 8 10 7 7 4 8 29 26 20 11 8 20 37 19 17 11 11 17 15
51 53 56 57 58 46 50 59 56 35 14 17 24 22 17 18 31 20 8 12 14 11 10 31 22 13 10 7 8 9 6 12 3 6 25 17 12 16 11 12 11 23 20 6 22 8 19
54 55 56 57 56 43 51 57 52 43 16 17 18 23 22 15 45 33 30 16 14 17 6 17 18 1 10 8 8 11 7 8 9 8 8 17 12 9 7 8 10 36 6 9 14 15 19
53 58 57 57 56 43 52 59 53 45 23 16 22 24 21 33 34 46 37 39 41 34 34 8 12 13 8 5 5 7 6 6 13 1 12 7 3 3 4 7 6 16 24 20 19 20 23
Wind_Direction_500mb
9 5 3 356 353 352 349 343 340 343 340 333 332 331 328 324 320 318 317 318 316 317 320 310 308 313 313 247 238 265 210 220 249 248 214 205 213 222 226 235 239 244 248 255 251 265 264
12 9 8 2 2 354 353 352 351 347 339 339 335 332 328 325 322 319 315 313 308 313 312 307 302 300 286 253 251 242 238 231 241 232 216 211 221 227 242 238 242 249 250 250 257 253 258
15 12 8 6 7 5 8 2 356 351 346 342 339 337 332 330 325 321 317 311 307 306 304 302 297 281 264 252 265 269 249 240 238 231 222 214 213 213 230 252 253 256 257 257 247 253 255
26 20 15 14 15 13 9 4 358 352 349 345 341 336 333 330 328 323 319 316 315 309 304 294 285 252 259 284 272 266 252 250 249 240 233 220 218 235 241 256 266 241 239 247 233 227 240
21 19 19 16 15 11 6 1 356 352 349 344 342 336 332 330 329 326 325 320 313 305 299 282 248 218 276 274 278 268 257 246 243 240 229 227 227 228 223 234 246 225 234 230 242 232 243
19 17 18 18 15 10 5 2 360 355 350 343 339 337 334 333 333 332 331 328 318 311 305 231 234 230 248 249 283 259 295 241 230 212 213 217 213 214 222 216 226 222 228 247 257 230 214
21 22 18 12 9 4 1 0 359 359 355 351 343 335 330 329 331 335 339 348 304 249 258 255 269 244 276 282 275 269 254 238 215 215 204 198 203 214 218 218 234 247 245 240 242 243 252
22 20 16 11 6 0 357 358 357 356 354 350 346 340 331 323 323 331 350 343 319 313 297 275 263 262 261 267 275 266 250 223 202 217 208 189 215 222 218 222 225 236 245 247 253 242 250
28 26 19 13 7 1 356 354 354 353 350 348 346 341 333 327 328 336 330 305 285 327 268 292 267 260 263 245 252 256 237 228 231 228 213 214 220 216 219 221 224 228 235 241 251 261 248
28 24 18 13 8 2 357 354 352 350 347 344 342 340 335 327 344 312 322 279 297 320 283 258 197 206 210 220 236 243 240 222 222 234 228 228 232 217 222 225 219 231 223 244 256 254 251
22 19 15 10 6 1 358 354 351 349 346 341 339 337 328 322 297 308 288 287 291 271 282 94 134 107 249 243 321 79 208 227 236 220 220 222 225 227 219 224 218 237 230 238 240 248 258
16 15 11 7 4 2 2 358 353 349 346 343 341 333 327 341 293 287 277 275 241 233 245 280 131 307 285 228 316 333 312 221 238 241 239 237 215 224 230 217 220 224 221 230 236 242 242
11 9 6 4 2 360 359 358 355 351 348 346 343 340 10 353 319 307 270 224 229 249 35 44 330 323 307 292 314 307 328 259 218 210 229 228 238 235 230 209 202 201 190 196 218 222 241
5 2 1 359 356 356 355 356 352 348 349 350 348 20 0 350 307 331 203 202 248 349 296 337 318 304 284 339 305 299 281 327 214 229 221 223 223 223 209 215 190 195 192 203 214 226 240
359 358 357 356 353 352 352 354 351 349 350 352 359 33 15 5 7 120 235 237 355 2 338 316 305 276 272 224 286 281 315 298 303 251 241 222 233 192 221 213 199 195 211 210 253 229 279
357 357 357 356 353 351 351 353 351 349 353 354 3 20 4 356 4 335 291 321 317 326 308 302 293 287 294 312 304 315 198 111 325 336 332 291 269 222 196 206 205 197 196 202 222 233 226
355 356 356 355 352 352 350 351 350 352 355 358 1 308 355 20 341 354 317 335 329 322 321 309 305 299 281 285 293 309 300 140 88 319 311 280 258 235 184 204 192 199 198 213 211 227 213
351 353 353 352 349 352 350 351 351 353 355 9 355 336 337 341 353 126 322 331 311 312 341 295 285 286 294 295 288 282 290 45 175 304 310 321 278 273 198 202 216 200 208 197 201 199 255
351 352 352 350 347 350 351 350 351 354 355 351 341 303 332 6 348 344 321 304 290 311 338 328 298 308 302 294 293 283 285 138 197 165 325 14 235 233 220 198 206 200 207 195 212 198 208
356 355 353 351 348 351 352 349 351 352 357 354 338 326 338 360 358 335 329 295 324 320 321 305 288 303 329 308 275 271 281 74 162 256 208 234 264 245 194 190 191 208 208 195 209 217 188
359 357 354 353 351 354 352 349 352 349 9 20 357 1 338 312 326 324 297 284 301 359 315 310 274 297 350 307 313 282 278 311 355 286 213 247 262 233 251 289 296 280 210 211 207 218 226
2 359 356 356 355 352 352 349 351 348 2 2 353 336 316 291 291 298 313 293 324 339 317 302 308 325 313 294 294 298 312 307 341 320 314 230 260 268 246 231 246 249 247 215 214 214 224
1 359 356 355 355 352 351 351 352 352 349 319 310 314 287 294 303 319 311 312 313 317 292 279 321 310 297 308 320 295 282 276 262 267 288 277 292 225 236 215 222 246 216 219 220 216 216
357 359 356 353 350 351 351 350 351 349 330 304 305 306 274 288 315 312 300 296 295 300 288 291 293 290 286 309 303 275 253 254 254 249 236 273 293 266 232 197 212 94 44 208 207 215 217
354 356 355 352 345 344 349 351 349 344 333 306 297 291 258 272 292 296 314 313 302 296 296 289 300 299 309 300 282 266 218 225 232 232 226 221 272 274 223 204 199 113 34 348 187 113 16
352 353 353 351 346 337 344 350 349 343 316 307 295 286 271 289 248 312 296 293 294 305 302 308 317 326 296 278 292 277 312 306 101 215 200 203 226 292 267 203 212 53 2 322 283 167 23
346 347 348 349 347 338 339 347 348 343 315 298 297 291 265 267 281 273 257 294 299 298 287 302 341 324 310 299 289 302 320 350 294 213 179 189 211 234 244 258 83 355 335 226 211 77 350
342 346 346 346 347 342 340 342 346 340 315 295 289 288 265 264 290 278 271 244 259 278 268 318 314 47 299 316 341 352 336 320 295 121 181 185 197 183 226 254 191 359 31 317 22 346 349
336 340 346 349 348 340 341 341 339 336 314 280 292 282 287 253 275 298 289 282 269 274 258 261 301 317 313 317 348 307 304 323 309 357 162 214 302 295 328 39 23 7 62 42 10 345 350
Wind_Speed_850mb
27 28 28 29 29 30 29 29 27 28 30 32 33 34 35 35 35 36 37 39 42 41 36 33 35 34 27 22 42 25 23 23 13 22 54 67 61 62 55 55 64 63 54 58 63 67 52
33 33 34 35 34 36 33 32 32 32 34 35 35 32 35 37 38 39 38 37 40 41 41 40 37 35 21 39 27 48 57 41 29 14 27 58 43 60 56 68 61 62 69 67 65 63 55
33 35 33 34 34 37 34 33 33 34 34 35 35 35 37 40 41 41 43 41 41 40 39 43 42 26 34 57 39 34 34 56 44 26 27 30 56 23 44 43 59 62 52 50 50 61 54
34 32 33 35 37 38 38 38 37 36 34 35 34 36 38 40 41 41 42 45 45 42 37 34 35 19 28 32 40 45 42 60 44 48 36 29 32 47 45 35 31 42 51 48 48 45 55
35 36 37 37 38 39 39 40 42 43 41 40 38 37 38 39 39 42 45 43 39 33 30 25 15 21 30 22 20 30 28 43 36 36 36 32 32 43 35 38 35 48 49 61 51 46 39
34 35 38 39 41 44 45 46 48 48 46 44 44 44 43 44 45 48 47 39 29 18 8 3 10 14 26 19 9 11 16 17 27 32 35 43 35 28 38 41 58 45 52 53 53 41 31
38 39 41 42 44 47 49 48 49 49 47 47 47 45 44 44 45 48 43 28 13 13 12 28 23 35 46 42 27 31 14 8 21 42 46 58 39 55 82 69 53 51 58 51 47 36 44
41 42 44 46 46 47 47 47 47 48 47 48 48 48 48 49 49 49 21 19 10 13 28 42 61 63 66 57 36 45 26 21 27 43 51 39 59 94 62 55 58 57 59 58 49 44 48
44 46 47 49 50 51 50 47 47 48 49 49 49 49 48 49 48 20 25 14 7 19 18 40 32 34 28 25 38 55 43 50 38 40 57 68 85 52 64 60 61 63 62 55 60 43 44
47 46 48 51 54 53 50 46 47 50 52 53 52 52 48 47 21 21 18 8 11 16 12 10 7 8 7 10 13 34 28 56 42 48 51 67 71 56 64 67 68 65 55 52 50 44 48
44 46 48 51 54 56 53 47 46 50 54 55 54 53 52 38 28 14 12 8 12 7 12 9 11 1 4 13 18 16 18 41 56 45 34 63 55 71 61 83 57 66 40 45 44 43 49
45 47 49 51 55 58 56 50 50 54 55 56 57 57 47 17 13 14 16 12 4 11 18 2 5 8 14 11 9 17 29 27 39 55 47 58 30 47 81 43 57 42 34 38 38 34 41
44 46 50 53 56 57 57 56 55 56 58 59 62 45 19 11 11 13 5 8 11 15 13 3 14 22 25 18 12 20 22 21 26 43 51 44 59 36 41 57 48 50 42 20 25 28 38
44 47 50 53 55 56 58 58 59 58 61 61 57 18 22 13 14 6 2 9 14 4 9 27 24 36 36 16 10 11 17 26 31 48 38 41 42 63 40 63 49 63 51 25 35 30 32
47 49 52 54 55 56 57 59 61 58 60 62 38 9 21 22 13 7 5 9 16 18 13 20 30 33 31 12 12 13 3 8 15 30 43 38 51 56 44 48 65 52 54 51 26 24 15
47 51 53 55 55 56 57 58 62 61 59 60 23 2 24 20 6 4 6 9 9 12 22 25 29 20 28 16 20 10 3 8 21 34 27 12 21 40 62 48 55 51 49 43 31 39 32
48 51 53 55 56 56 56 56 57 63 55 54 17 5 20 18 6 6 7 14 21 23 25 15 26 28 27 27 26 23 5 19 6 25 24 26 18 30 46 51 53 42 42 42 34 27 32
50 51 53 55 57 56 54 55 56 59 53 40 16 5 14 11 5 0 10 19 24 22 23 18 17 18 21 25 23 16 12 7 16 12 13 13 13 22 54 45 49 56 43 54 25 42 24
51 51 52 54 57 55 52 55 52 49 48 35 19 9 10 13 6 7 14 20 15 25 23 13 20 14 20 22 12 9 10 21 14 1 4 7 19 17 23 46 43 55 47 52 33 31 42
53 53 53 55 56 51 52 55 48 42 36 24 14 7 7 6 2 7 16 12 16 16 17 21 20 22 23 20 17 13 14 4 9 18 14 10 9 29 17 37 22 47 49 49 47 24 25
53 54 56 56 52 48 56 57 48 39 26 16 12 5 8 8 10 20 18 11 23 18 14 26 8 15 22 14 30 22 10 16 4 11 15 7 14 38 38 17 14 26 49 50 49 44 33
53 54 56 53 48 53 59 61 45 32 28 9 11 10 12 32 17 22 3 15 21 23 15 18 21 31 28 25 28 33 32 23 8 12 10 8 3 23 40 30 22 15 21 45 48 44 39
54 55 55 51 46 57 62 62 49 25 22 7 9 10 11 17 12 14 12 15 24 33 25 18 28 30 30 21 29 43 44 40 23 13 7 9 8 10 38 39 19 23 29 31 38 44 39
55 54 55 53 43 53 63 64 50 23 19 18 20 16 7 10 16 18 24 33 29 31 33 47 41 19 16 48 54 47 48 46 39 31 23 17 14 8 16 32 25 14 16 26 26 35 38
55 55 55 56 47 48 61 66 55 20 17 16 20 16 8 11 20 27 25 26 35 29 28 31 29 24 34 26 11 14 11 18 29 36 30 26 19 6 10 24 19 15 19 8 24 18 10
52 55 56 58 55 44 55 63 60 24 14 17 19 20 17 12 7 16 33 30 21 20 21 14 25 29 14 6 8 10 7 7 4 8 29 26 20 11 8 20 37 19 17 11 11 17 15
51 53 56 57 58 46 50 59 56 35 14 17 24 22 17 18 31 20 8 12 14 11 10 31 22 13 10 7 8 9 6 12 3 6 25 17 12 16 11 12 11 23 20 6 22 8 19
54 55 56 57 56 43 51 57 52 43 16 17 18 23 22 15 45 33 30 16 14 17 6 17 18 1 10 8 8 11 7 8 9 8 8 17 12 9 7 8 10 36 6 9 14 15 19
53 58 57 57 56 43 52 59 53 45 23 16 22 24 21 33 34 46 37 39 41 34 34 8 12 13 8 5 5 7 6 6 13 1 12 7 3 3 4 7 6 16 24 20 19 20 23
Wind_Direction_850mb
9 5 3 356 353 352 349 343 340 343 340 333 332 331 328 324 320 318 317 318 316 317 320 310 308 313 313 247 238 265 210 220 249 248 214 205 213 222 226 235 239 244 248 255 251 265 264
12 9 8 2 2 354 353 352 351 347 339 339 335 332 328 325 322 319 315 313 308 313 312 307 302 300 286 253 251 242 238 231 241 232 216 211 221 227 242 238 242 249 250 250 257 253 258
15 12 8 6 7 5 8 2 356 351 346 342 339 337 332 330 325 321 317 311 307 306 304 302 297 281 264 252 265 269 249 240 238 231 222 214 213 213 230 252 253 256 257 257 247 253 255
26 20 15 14 15 13 9 4 358 352 349 345 341 336 333 330 328 323 319 316 315 309 304 294 285 252 259 284 272 266 252 250 249 240 233 220 218 235 241 256 266 241 239 247 233 227 240
21 19 19 16 15 11 6 1 356 352 349 344 342 336 332 330 329 326 325 320 313 305 299 282 248 218 276 274 278 268 257 246 243 240 229 227 227 228 223 234 246 225 234 230 242 232 243
19 17 18 18 15 10 5 2 360 355 350 343 339 337 334 333 333 332 331 328 318 311 305 231 234 230 248 249 283 259 295 241 230 212 213 217 213 214 222 216 226 222 228 247 257 230 214
21 22 18 12 9 4 1 0 359 359 355 351 343 335 330 329 331 335 339 348 304 249 258 255 269 244 276 282 275 269 254 238 215 215 204 198 203 214 218 218 234 247 245 240 242 243 252
22 20 16 11 6 0 357 358 357 356 354 350 346 340 331 323 323 331 350 343 319 313 297 275 263 262 261 267 275 266 250 223 202 217 208 189 215 222 218 222 225 236 245 247 253 242 250
28 26 19 13 7 1 356 354 354 353 350 348 346 341 333 327 328 336 330 305 285 327 268 292 267 260 263 245 252 256 237 228 231 228 213 214 220 216 219 221 224 228 235 241 251 261 248
28 24 18 13 8 2 357 354 352 350 347 344 342 340 335 327 344 312 322 279 297 320 283 258 197 206 210 220 236 243 240 222 222 234 228 228 232 217 222 225 219 231 223 244 256 254 251
22 19 15 10 6 1 358 354 351 349 346 341 339 337 328 322 297 308 288 287 291 271 282 94 134 107 249 243 321 79 208 227 236 220 220 222 225 227 219 224 218 237 230 238 240 248 258
16 15 11 7 4 2 2 358 353 349 346 343 341 333 327 341 293 287 277 275 241 233 245 280 131 307 285 228 316 333 312 221 238 241 239 237 215 224 230 217 220 224 221 230 236 242 242
11 9 6 4 2 360 359 358 355 351 348 346 343 340 10 353 319 307 270 224 229 249 35 44 330 323 307 292 314 307 328 259 218 210 229 228 238 235 230 209 202 201 190 196 218 222 241
5 2 1 359 356 356 355 356 352 348 349 350 348 20 0 350 307 331 203 202 248 349 296 337 318 304 284 339 305 299 281 327 214 229 221 223 223 223 209 215 190 195 192 203 214 226 240
359 358 357 356 353 352 352 354 351 349 350 352 359 33 15 5 7 120 235 237 355 2 338 316 305 276 272 224 286 281 315 298 303 251 241 222 233 192 221 213 199 195 211 210 253 229 279
357 357 357 356 353 351 351 353 351 349 353 354 3 20 4 356 4 335 291 321 317 326 308 302 293 287 294 312 304 315 198 111 325 336 332 291 269 222 196 206 205 197 196 202 222 233 226
355 356 356 355 352 352 350 351 350 352 355 358 1 308 355 20 341 354 317 335 329 322 321 309 305 299 281 285 293 309 300 140 88 319 311 280 258 235 184 204 192 199 198 213 211 227 213
351 353 353 352 349 352 350 351 351 353 355 9 355 336 337 341 353 126 322 331 311 312 341 295 285 286 294 295 288 282 290 45 175 304 310 321 278 273 198 202 216 200 208 197 201 199 255
351 352 352 350 347 350 351 350 351 354 355 351 341 303 332 6 348 344 321 304 290 311 338 328 298 308 302 294 293 283 285 138 197 165 325 14 235 233 220 198 206 200 207 195 212 198 208
356 355 353 351 348 351 352 349 351 352 357 354 338 326 338 360 358 335 329 295 324 320 321 305 288 303 329 308 275 271 281 74 162 256 208 234 264 245 194 190 191 208 208 195 209 217 188
359 357 354 353 351 354 352 349 352 349 9 20 357 1 338 312 326 324 297 284 301 359 315 310 274 297 350 307 313 282 278 311 355 286 213 247 262 233 251 289 296 280 210 211 207 218 226
2 359 356 356 355 352 352 349 351 348 2 2 353 336 316 291 291 298 313 293 324 339 317 302 308 325 313 294 294 298 312 307 341 320 314 230 260 268 246 231 246 249 247 215 214 214 224
1 359 356 355 355 352 351 351 352 352 349 319 310 314 287 294 303 319 311 312 313 317 292 279 321 310 297 308 320 295 282 276 262 267 288 277 292 225 236 215 222 246 216 219 220 216 216
357 359 356 353 350 351 351 350 351 349 330 304 305 306 274 288 315 312 300 296 295 300 288 291 293 290 286 309 303 275 253 254 254 249 236 273 293 266 232 197 212 94 44 208 207 215 217
354 356 355 352 345 344 349 351 349 344 333 306 297 291 258 272 292 296 314 313 302 296 296 289 300 299 309 300 282 266 218 225 232 232 226 221 272 274 223 204 199 113 34 348 187 113 16
352 353 353 351 346 337 344 350 349 343 316 307 295 286 271 289 248 312 296 293 294 305 302 308 317 326 296 278 292 277 312 306 101 215 200 203 226 292 267 203 212 53 2 322 283 167 23
346 347 348 349 347 338 339 347 348 343 315 298 297 291 265 267 281 273 257 294 299 298 287 302 341 324 310 299 289 302 320 350 294 213 179 189 211 234 244 258 83 355 335 226 211 77 350
342 346 346 346 347 342 340 342 346 340 315 295 289 288 265 264 290 278 271 244 259 278 268 318 314 47 299 316 341 352 336 320 295 121 181 185 197 183 226 254 191 359 31 317 22 346 349
336 340 346 349 348 340 341 341 339 336 314 280 292 282 287 253 275 298 289 282 269 274 258 261 301 317 313 317 348 307 304 323 309 357 162 214 302 295 328 39 23 7 62 42 10 345 350